GFSNE_700_temp_216.txt.gz
Temp
6 6 5 4 3 3 3 3 3 3 3 3 2 2 2 2 1 1 1 1 0 -0 -1 -2 -2 -3 -3 -4 -5 -4 -5 -5 -4 -4 -4 -4 -4 -4
5 4 4 4 3 4 4 3 3 3 2 1 1 1 1 1 1 0 0 -1 -0 -1 -2 -3 -4 -4 -5 -5 -6 -5 -7 -5 -5 -5 -5 -4 -4 -4
4 4 4 4 4 4 3 3 2 2 2 2 0 -0 0 0 0 -0 -1 -2 -1 -3 -3 -3 -4 -5 -5 -5 -6 -7 -7 -6 -5 -5 -5 -5 -5 -5
5 4 4 4 4 3 2 1 1 1 -0 -1 -1 -2 -0 -1 -1 -2 -2 -3 -2 -3 -4 -4 -5 -6 -5 -6 -7 -7 -7 -6 -6 -6 -5 -6 -5 -6
4 4 4 4 4 3 3 1 0 0 -0 -1 -0 -3 -2 -2 -3 -2 -2 -2 -3 -4 -5 -5 -5 -6 -6 -7 -7 -7 -7 -7 -7 -6 -6 -6 -6 -6
3 4 4 4 4 3 3 1 1 -0 -0 -0 -0 -1 -1 -1 -1 -2 -3 -3 -3 -4 -5 -5 -6 -7 -7 -7 -7 -8 -8 -8 -7 -7 -7 -7 -7 -7
4 3 3 4 4 2 3 2 1 1 0 -0 -1 -1 -1 -1 -1 -2 -3 -3 -5 -5 -5 -6 -6 -7 -7 -7 -7 -8 -8 -8 -8 -7 -7 -7 -7 -8
3 2 2 3 3 3 2 1 1 0 -0 -1 -1 -1 -1 -2 -2 -3 -4 -4 -4 -4 -5 -6 -6 -7 -7 -7 -7 -9 -8 -8 -8 -8 -7 -8 -8 -8
2 2 1 1 2 1 -0 0 0 -1 -1 -1 -1 -1 -2 -3 -3 -4 -4 -5 -5 -5 -6 -7 -7 -7 -7 -8 -8 -9 -8 -8 -8 -9 -9 -9 -8 -8
1 1 0 0 1 1 -0 -0 -1 -1 -1 -1 -2 -3 -4 -4 -4 -4 -5 -5 -6 -6 -7 -7 -7 -7 -8 -8 -8 -8 -8 -9 -9 -9 -9 -9 -9 -9
2 1 0 0 -0 -0 -1 -1 -2 -2 -2 -2 -3 -4 -4 -4 -4 -4 -4 -5 -6 -7 -7 -8 -8 -8 -8 -8 -9 -9 -9 -9 -9 -9 -10 -10 -9 -10
-0 -1 -0 -1 -2 -2 -2 -3 -3 -3 -3 -2 -4 -4 -5 -5 -4 -5 -6 -6 -7 -8 -8 -8 -8 -8 -8 -8 -9 -9 -10 -9 -9 -10 -10 -10 -10 -10
-1 -1 -1 -3 -4 -3 -3 -3 -3 -3 -3 -3 -4 -4 -4 -4 -4 -5 -5 -7 -8 -8 -8 -8 -9 -9 -9 -9 -10 -10 -10 -10 -10 -10 -11 -12 -12 -12
-2 -3 -3 -3 -3 -3 -3 -4 -4 -4 -3 -3 -3 -3 -3 -4 -5 -6 -7 -7 -8 -8 -9 -9 -9 -9 -9 -10 -10 -10 -11 -10 -11 -11 -12 -12 -13 -12
-4 -5 -4 -4 -4 -4 -4 -4 -4 -4 -4 -3 -3 -3 -4 -5 -6 -6 -7 -7 -8 -9 -9 -9 -9 -9 -9 -10 -10 -11 -12 -12 -12 -12 -12 -14 -14 -14
-3 -3 -3 -3 -4 -4 -4 -4 -4 -4 -4 -4 -5 -5 -5 -6 -6 -7 -7 -8 -8 -9 -9 -9 -9 -9 -9 -10 -10 -10 -11 -13 -13 -12 -14 -14 -13 -13
-2 -2 -3 -4 -4 -4 -4 -4 -4 -4 -4 -4 -5 -5 -6 -6 -6 -7 -8 -9 -9 -9 -9 -9 -9 -10 -10 -10 -10 -11 -12 -13 -13 -13 -13 -13 -13 -15
-3 -3 -3 -3 -3 -4 -3 -3 -3 -3 -4 -4 -4 -5 -6 -6 -7 -8 -8 -9 -9 -10 -10 -10 -10 -10 -11 -11 -11 -11 -12 -12 -12 -13 -13 -13 -13 -14
-3 -3 -3 -3 -2 -2 -3 -3 -3 -3 -4 -4 -4 -5 -6 -7 -8 -8 -9 -9 -9 -9 -10 -10 -10 -11 -11 -11 -12 -12 -12 -13 -13 -13 -13 -14 -14 -13
-3 -3 -3 -3 -3 -3 -3 -4 -4 -4 -5 -5 -6 -6 -7 -7 -8 -9 -9 -9 -10 -10 -10 -10 -11 -11 -12 -12 -12 -13 -13 -13 -13 -14 -14 -14 -14 -14
-3 -3 -4 -4 -4 -4 -4 -4 -4 -5 -5 -5 -6 -6 -7 -7 -8 -9 -10 -10 -11 -11 -11 -11 -12 -12 -13 -13 -13 -13 -14 -14 -14 -14 -14 -14 -14 -14
-4 -4 -4 -4 -4 -5 -5 -5 -5 -5 -6 -6 -6 -7 -7 -8 -9 -10 -11 -11 -12 -12 -12 -12 -13 -13 -13 -13 -14 -14 -14 -14 -14 -14 -14 -14 -14 -14
-5 -5 -5 -5 -5 -6 -6 -6 -6 -7 -7 -7 -7 -7 -8 -8 -9 -10 -11 -12 -13 -13 -13 -13 -14 -14 -14 -14 -14 -14 -14 -14 -15 -15 -15 -15 -15 -15

GFSNE_700_temp_219.txt.gz
Temp
6 6 5 5 5 5 3 3 5 3 4 4 3 3 3 3 2 2 2 2 2 2 2 1 1 1 -0 -1 -2 -3 -4 -4 -5 -4 -5 -4 -4 -3
6 5 6 5 5 5 4 3 4 3 3 3 3 2 1 1 1 1 1 1 1 1 1 1 0 -0 -2 -2 -3 -4 -5 -5 -6 -6 -6 -5 -4 -4
7 6 5 4 4 4 4 4 4 3 3 3 3 1 -1 -3 -2 -2 -1 0 -0 -0 -0 -0 -1 -2 -3 -4 -4 -5 -6 -6 -6 -6 -5 -5 -5 -4
6 5 6 5 4 5 5 5 4 4 3 3 3 2 0 1 -1 -2 -1 -1 -3 -1 -2 -2 -2 -2 -3 -4 -4 -6 -6 -7 -6 -6 -6 -6 -6 -5
6 6 5 5 5 5 6 5 5 3 4 2 1 1 0 -1 -0 -1 0 -0 -3 -3 -3 -4 -3 -3 -4 -5 -5 -6 -6 -6 -6 -7 -6 -6 -6 -6
5 5 5 4 5 4 4 3 3 3 3 3 2 0 2 -0 -1 -2 -1 -1 -2 -2 -2 -3 -3 -4 -4 -5 -6 -6 -6 -7 -7 -7 -7 -7 -7 -6
6 6 5 4 4 4 3 3 3 3 3 3 2 1 -0 0 -0 -1 -2 -1 -2 -2 -3 -3 -4 -4 -5 -5 -6 -6 -6 -7 -7 -8 -8 -7 -7 -7
5 5 4 3 3 3 4 3 2 1 0 -0 0 1 -0 0 -0 -1 -2 -2 -2 -2 -3 -4 -4 -5 -5 -6 -6 -7 -7 -7 -7 -9 -8 -8 -7 -7
4 4 3 3 3 3 2 3 2 1 1 -0 -0 -0 -1 -1 -0 -1 -2 -2 -3 -3 -4 -4 -5 -5 -6 -7 -7 -7 -7 -7 -8 -9 -8 -8 -8 -8
4 3 3 3 3 2 2 1 1 0 -1 -1 -2 -3 -2 -2 -2 -3 -3 -4 -4 -4 -5 -5 -6 -6 -6 -7 -7 -7 -7 -7 -8 -9 -9 -9 -9 -9
3 2 2 3 2 2 1 1 -1 -1 -0 -1 -2 -2 -2 -3 -4 -5 -5 -5 -4 -4 -5 -6 -6 -7 -7 -7 -7 -8 -7 -8 -8 -8 -9 -8 -8 -8
2 2 2 1 2 1 1 -0 -1 -1 -1 -3 -3 -4 -5 -5 -5 -5 -5 -5 -5 -5 -5 -6 -6 -7 -7 -8 -7 -8 -8 -8 -9 -9 -9 -9 -9 -9
1 1 2 1 1 0 0 -0 -1 -2 -3 -4 -5 -5 -5 -5 -5 -5 -5 -5 -5 -5 -6 -7 -7 -7 -8 -8 -8 -8 -8 -9 -9 -10 -10 -10 -10 -10
-0 0 0 -0 -1 -1 -2 -2 -3 -4 -4 -4 -4 -5 -5 -4 -4 -5 -6 -6 -6 -6 -7 -7 -7 -8 -8 -8 -8 -8 -9 -9 -10 -10 -11 -10 -10 -10
-1 -1 -2 -2 -3 -3 -4 -4 -4 -4 -4 -4 -4 -5 -5 -6 -6 -6 -6 -5 -6 -7 -7 -7 -7 -8 -9 -9 -9 -9 -9 -9 -10 -10 -11 -11 -11 -11
-2 -3 -4 -4 -5 -5 -5 -5 -6 -5 -5 -5 -5 -5 -5 -5 -5 -5 -6 -6 -6 -6 -7 -7 -8 -8 -9 -9 -9 -9 -9 -9 -10 -10 -11 -12 -12 -12
-5 -6 -6 -6 -6 -5 -5 -5 -5 -4 -4 -4 -5 -5 -5 -5 -5 -5 -6 -6 -6 -7 -8 -8 -9 -9 -9 -9 -9 -9 -9 -10 -10 -11 -11 -11 -12 -12
-6 -6 -5 -4 -5 -5 -5 -5 -4 -4 -4 -4 -4 -5 -5 -5 -6 -6 -7 -7 -8 -8 -9 -9 -9 -9 -10 -10 -10 -9 -10 -10 -10 -11 -11 -11 -12 -12
-4 -3 -3 -4 -4 -5 -4 -3 -3 -3 -3 -3 -3 -4 -4 -5 -6 -6 -7 -8 -9 -9 -9 -10 -10 -10 -10 -10 -10 -10 -10 -11 -11 -11 -12 -12 -13 -13
-4 -5 -4 -4 -4 -4 -4 -3 -4 -4 -4 -4 -4 -4 -5 -5 -5 -6 -7 -8 -9 -9 -9 -9 -9 -10 -10 -11 -11 -11 -11 -12 -12 -12 -13 -13 -13 -13
-4 -4 -4 -3 -4 -3 -4 -4 -4 -4 -4 -4 -5 -5 -5 -6 -6 -7 -7 -8 -8 -9 -9 -8 -10 -11 -11 -12 -11 -11 -12 -13 -12 -13 -13 -14 -14 -14
-4 -4 -4 -4 -4 -4 -4 -4 -4 -5 -5 -5 -5 -6 -6 -6 -7 -7 -7 -7 -8 -9 -9 -10 -10 -11 -12 -12 -13 -12 -13 -13 -13 -13 -14 -14 -14 -14
-5 -5 -5 -5 -5 -5 -5 -5 -5 -5 -6 -6 -6 -6 -7 -7 -7 -8 -8 -8 -9 -10 -11 -12 -12 -13 -13 -13 -14 -13 -13 -14 -14 -14 -14 -14 -14 -14

GFSNE_700_temp_225.txt.gz
Temp
6 6 6 6 6 6 6 5 4 3 4 3 4 4 4 4 3 3 4 3 3 3 3 2 -1 -1 0 1 1 1 0 1 0 -1 -1 -2 -2 -3
6 6 6 6 6 6 6 5 5 3 4 4 4 3 3 4 4 3 3 2 2 3 2 2 0 -0 -1 -1 -2 -1 -1 -1 -1 -1 -2 -3 -3 -3
5 5 5 5 6 6 6 5 4 4 4 4 4 3 3 2 3 3 3 3 3 2 1 0 -0 -0 -1 -2 -4 -4 -3 -3 -3 -2 -3 -4 -4 -4
4 4 4 4 5 6 6 5 4 4 4 3 4 4 3 3 3 3 3 3 3 2 1 -0 -1 -1 -1 -2 -3 -6 -6 -5 -4 -4 -4 -5 -5 -5
4 4 4 5 5 4 5 5 5 4 4 3 4 4 3 4 4 3 3 3 2 1 1 -0 -1 -1 -2 -2 -2 -4 -5 -7 -7 -6 -5 -5 -6 -6
5 4 3 3 4 4 4 4 3 4 3 3 3 4 3 3 3 2 3 2 1 0 -0 -1 -1 -2 -2 -3 -3 -5 -5 -6 -7 -6 -5 -6 -6 -7
5 4 4 4 3 4 3 3 4 4 3 4 4 4 3 3 3 2 1 1 0 0 -0 -1 -2 -2 -2 -3 -3 -5 -4 -5 -5 -6 -6 -7 -7 -9
4 3 3 3 3 3 3 3 3 3 3 3 3 3 3 3 2 2 1 1 0 0 -1 -1 -2 -3 -3 -4 -4 -5 -5 -5 -6 -6 -6 -7 -7 -9
4 3 3 3 3 3 3 3 3 3 3 3 3 3 3 2 2 1 1 -0 -0 -1 -2 -3 -4 -4 -4 -4 -5 -5 -6 -5 -6 -6 -6 -7 -7 -8
2 3 2 2 3 2 2 3 3 2 3 3 3 2 2 2 2 1 0 -1 -2 -2 -3 -4 -5 -5 -5 -5 -5 -6 -6 -6 -7 -7 -7 -7 -7 -8
2 1 2 2 2 3 3 3 2 2 2 2 2 3 3 2 1 1 -0 -1 -2 -2 -3 -5 -5 -5 -6 -6 -6 -6 -7 -7 -7 -7 -7 -7 -7 -7
2 2 2 2 3 2 2 2 2 2 2 2 2 1 1 1 0 -1 -1 -2 -2 -2 -3 -4 -5 -5 -6 -6 -6 -7 -7 -7 -7 -7 -7 -7 -7 -7
3 2 2 2 2 2 2 2 1 2 1 1 0 1 0 0 0 -0 -1 -2 -2 -3 -5 -5 -6 -6 -6 -6 -7 -7 -7 -7 -7 -7 -7 -7 -7 -8
2 3 2 2 1 2 2 2 2 1 1 1 0 -0 -0 -1 -1 -2 -3 -4 -4 -4 -5 -6 -7 -7 -7 -7 -7 -7 -7 -7 -7 -7 -7 -8 -8 -8
1 1 2 2 2 2 2 1 2 1 1 0 0 -0 -1 -1 -3 -4 -5 -5 -5 -5 -6 -6 -7 -7 -7 -6 -7 -7 -7 -7 -7 -7 -8 -8 -8 -8
-0 0 1 2 2 1 1 1 -0 -0 -1 -1 -1 -1 -2 -3 -5 -5 -6 -6 -6 -6 -6 -6 -7 -7 -6 -6 -6 -7 -7 -7 -8 -8 -9 -9 -9 -9
-2 -2 -1 -0 -0 -0 -2 -2 -2 -1 -1 -2 -3 -3 -4 -5 -5 -6 -6 -6 -6 -6 -6 -6 -7 -7 -6 -7 -7 -7 -7 -7 -8 -8 -9 -9 -9 -9
-3 -2 -3 -3 -3 -3 -3 -3 -3 -3 -4 -4 -5 -5 -5 -6 -6 -6 -6 -6 -6 -7 -7 -7 -7 -7 -6 -7 -7 -7 -8 -8 -8 -9 -9 -9 -9 -9
-3 -3 -3 -4 -4 -4 -5 -5 -5 -6 -6 -6 -6 -6 -5 -5 -6 -6 -5 -6 -7 -7 -7 -7 -7 -7 -7 -7 -8 -8 -9 -9 -9 -10 -10 -10 -10 -10
-5 -5 -6 -6 -6 -6 -6 -6 -5 -5 -5 -5 -5 -6 -6 -6 -6 -6 -6 -6 -7 -7 -7 -7 -7 -7 -8 -9 -9 -9 -10 -10 -10 -10 -10 -10 -10 -10
-6 -6 -7 -6 -6 -5 -5 -5 -4 -4 -4 -5 -5 -6 -6 -6 -5 -5 -6 -6 -7 -7 -7 -7 -9 -9 -9 -9 -9 -9 -9 -10 -10 -10 -11 -11 -11 -11
-6 -5 -5 -5 -5 -5 -5 -4 -4 -4 -4 -4 -5 -5 -5 -5 -5 -5 -6 -6 -6 -7 -8 -8 -9 -9 -9 -9 -9 -10 -10 -10 -10 -11 -11 -11 -11 -11
-5 -5 -5 -5 -4 -4 -4 -4 -4 -4 -4 -5 -5 -5 -5 -5 -5 -6 -6 -6 -7 -7 -8 -9 -9 -9 -9 -10 -10 -10 -10 -11 -11 -12 -12 -12 -13 -13

GFSNE_700_temp_228.txt.gz
Temp
6 6 7 7 7 7 7 6 5 5 6 7 6 6 5 5 4 3 4 3 3 3 2 3 3 2 2 1 0 0 -1 -1 -2 -2 -2 -1 -1 -1
6 5 5 6 6 6 7 7 6 3 4 5 6 5 3 3 3 3 3 3 3 3 3 3 2 1 1 0 0 -0 -1 -1 -4 -4 -3 -3 -2 -3
5 5 4 4 4 5 6 6 5 4 4 5 5 4 3 4 3 3 3 3 3 2 3 2 2 2 1 0 -0 -1 -1 -2 -3 -4 -6 -5 -5 -4
5 4 3 4 3 3 3 4 5 5 4 5 5 4 3 3 3 2 3 3 2 2 3 2 2 0 1 0 -1 -1 -2 -2 -3 -3 -6 -7 -7 -7
3 3 3 3 4 4 3 4 4 4 4 3 3 3 2 2 3 3 3 3 3 3 2 2 1 0 0 -0 -1 -2 -2 -2 -3 -4 -6 -8 -9 -9
3 3 3 3 4 3 4 3 4 4 4 4 4 3 3 3 3 3 3 3 3 2 2 1 0 0 0 -1 -2 -2 -2 -3 -3 -4 -4 -6 -9 -7
4 4 3 3 3 3 3 3 4 3 3 2 3 3 3 2 3 4 4 3 3 2 2 1 1 0 -0 -1 -1 -2 -2 -3 -4 -5 -5 -6 -7 -6
3 3 2 3 2 3 2 3 3 4 3 3 3 3 2 3 3 3 2 2 2 2 1 1 0 0 -1 -1 -2 -2 -3 -3 -4 -5 -6 -6 -6 -6
4 3 4 4 2 2 3 3 3 2 3 3 3 2 2 3 1 2 1 2 2 2 1 1 0 0 -0 -2 -3 -3 -4 -4 -5 -6 -6 -6 -6 -7
2 3 3 2 2 2 3 2 3 2 3 3 1 1 1 1 2 1 2 1 1 1 0 1 0 -0 -1 -3 -4 -5 -5 -5 -6 -7 -7 -7 -7 -8
2 3 2 2 1 2 2 1 1 1 1 1 1 1 1 2 1 1 1 1 1 1 0 0 -1 -2 -2 -4 -5 -6 -6 -6 -7 -7 -8 -8 -8 -9
2 2 3 3 2 2 1 1 2 1 2 1 1 1 1 1 1 1 1 0 0 0 0 -1 -1 -2 -3 -4 -5 -6 -6 -7 -7 -8 -8 -8 -8 -8
2 2 2 2 3 2 2 2 2 1 1 1 1 1 1 1 1 0 0 0 0 -1 -1 -1 -2 -3 -5 -5 -6 -6 -7 -7 -8 -8 -8 -8 -8 -8
1 0 1 2 2 2 2 2 2 2 1 1 1 2 2 2 0 0 1 0 -1 -1 -2 -2 -3 -4 -5 -6 -6 -6 -7 -7 -8 -8 -8 -9 -8 -8
-0 1 0 0 2 2 1 2 1 1 0 -0 0 0 1 -0 -0 -0 -1 -1 -1 -2 -3 -3 -5 -6 -6 -6 -6 -7 -7 -8 -8 -8 -8 -8 -8 -8
0 1 0 0 1 2 2 2 2 2 0 -1 -1 -1 -1 -1 -2 -2 -2 -2 -2 -3 -4 -5 -6 -6 -6 -6 -6 -7 -7 -8 -8 -8 -8 -8 -8 -8
-1 -0 -0 -1 -1 -1 1 1 1 0 -1 -1 -2 -2 -2 -2 -2 -2 -2 -3 -5 -5 -6 -6 -6 -6 -6 -7 -7 -7 -7 -7 -7 -8 -8 -8 -8 -9
-3 -2 -2 -2 -2 -1 -1 0 0 -2 -3 -3 -2 -2 -2 -2 -3 -4 -5 -5 -6 -6 -6 -6 -7 -6 -6 -6 -7 -7 -7 -7 -7 -7 -8 -8 -9 -9
-4 -3 -3 -3 -3 -2 -2 -3 -3 -3 -3 -3 -3 -3 -3 -4 -5 -6 -6 -6 -6 -6 -6 -6 -6 -6 -7 -7 -7 -8 -8 -8 -8 -8 -8 -9 -9 -10
-4 -4 -3 -3 -4 -4 -4 -4 -4 -4 -4 -4 -4 -5 -5 -5 -5 -5 -5 -5 -5 -6 -6 -6 -6 -7 -7 -8 -8 -9 -9 -8 -8 -9 -9 -10 -10 -10
-4 -4 -4 -5 -5 -5 -6 -5 -5 -5 -5 -5 -5 -5 -5 -5 -5 -6 -6 -6 -6 -6 -6 -6 -7 -7 -8 -8 -8 -9 -9 -9 -9 -10 -10 -10 -10 -10
-5 -6 -6 -6 -6 -6 -5 -5 -5 -4 -4 -4 -5 -5 -5 -5 -6 -6 -6 -5 -5 -6 -6 -6 -7 -8 -8 -9 -9 -10 -10 -10 -10 -10 -11 -11 -11 -11
-6 -6 -6 -6 -6 -5 -4 -5 -5 -4 -4 -4 -4 -4 -4 -4 -4 -5 -4 -5 -6 -6 -6 -7 -8 -8 -9 -9 -10 -11 -10 -11 -11 -11 -11 -11 -11 -12

GFSNE_700_temp_234.txt.gz
Temp
6 6 6 6 6 6 6 6 5 6 6 6 5 5 4 4 4 3 3 2 2 2 2 2 2 2 2 3 3 2 2 2 2 1 -0 -0 -0 -1
5 6 6 6 6 6 6 6 6 5 6 7 6 5 4 4 4 3 2 2 2 2 2 3 2 3 3 3 2 2 2 2 1 1 0 0 -1 -2
5 5 5 6 6 6 6 6 6 6 6 6 7 6 6 5 5 4 2 2 2 3 3 3 3 3 3 3 2 2 2 2 1 0 -0 -0 -1 -2
4 4 5 5 5 5 5 6 6 6 5 6 6 6 6 5 4 3 2 2 3 2 2 2 3 3 3 3 2 2 2 1 0 -0 -0 -1 -2 -2
4 4 4 4 4 4 5 5 4 4 4 4 4 5 5 4 4 4 4 3 2 3 2 2 2 2 2 2 2 2 1 0 0 -0 -1 -1 -2 -3
2 3 4 4 3 3 4 4 3 3 3 3 3 3 4 4 4 3 3 3 3 2 2 2 3 2 2 2 2 2 0 -0 -0 -0 -0 -1 -2 -3
3 3 3 3 3 2 2 2 3 4 4 4 4 3 3 4 4 3 3 2 2 3 3 3 2 2 2 2 2 1 1 -0 -1 -0 -0 -1 -2 -3
3 4 3 3 4 4 3 2 2 3 4 4 3 3 4 3 4 3 3 2 2 2 1 3 2 2 2 2 1 1 0 -0 -1 -1 -1 -1 -2 -4
3 3 3 3 3 3 3 2 2 3 3 3 3 4 3 4 3 3 2 2 2 2 2 2 1 1 0 1 1 -0 -0 -0 -0 -1 -1 -2 -3 -4
2 3 2 3 2 3 3 2 2 3 3 3 4 3 3 4 3 3 2 1 2 1 1 1 1 1 1 1 0 -0 -0 -1 -1 -2 -2 -3 -3 -4
2 2 2 3 3 3 3 3 2 3 2 3 4 3 3 3 2 2 2 1 1 2 1 1 1 0 -0 -0 -0 -0 -0 -1 -1 -1 -3 -3 -4 -4
1 1 1 1 2 2 3 3 3 3 3 3 3 3 2 2 2 1 1 1 1 0 1 0 0 -0 -0 -0 0 -0 -1 -0 -1 -0 -2 -4 -4 -5
-0 -0 -0 0 1 1 1 2 3 2 2 2 1 1 1 2 1 1 1 1 1 0 0 0 -0 -0 -0 0 -0 -0 -1 -1 -1 -2 -2 -3 -5 -5
-1 -1 -0 -0 -0 0 1 1 1 2 1 2 1 0 1 2 1 0 1 1 0 1 0 -0 0 -0 -0 -0 -1 -1 -1 -1 -2 -2 -3 -3 -5 -6
-2 -1 -1 -1 -0 -0 -0 -0 0 1 1 1 1 1 1 1 0 1 1 1 1 -0 0 -0 -0 -0 -0 -0 -1 -1 -2 -2 -2 -3 -3 -4 -6 -6
-2 -1 -1 -0 -0 -0 0 -0 -0 0 0 0 0 0 -0 0 -1 -0 0 0 -1 0 -1 -1 -1 -0 -1 -2 -2 -3 -3 -3 -4 -4 -5 -6 -7 -8
-3 -2 -2 -1 -0 -0 -0 0 -0 -0 -0 -0 0 -0 -1 -1 -0 -1 -1 -1 -1 -2 -1 -1 -1 -1 -1 -3 -3 -3 -4 -5 -5 -6 -6 -7 -7 -8
-4 -3 -3 -2 -2 -1 -1 -0 0 0 -1 -1 -1 -1 -2 -2 -1 -1 -2 -1 -2 -2 -2 -2 -2 -3 -3 -3 -4 -5 -5 -6 -7 -7 -7 -8 -8 -8
-4 -4 -4 -3 -2 -2 -1 -1 -0 -1 -1 -1 -1 -1 -1 -2 -1 -1 -1 -2 -2 -2 -3 -3 -3 -3 -4 -5 -6 -6 -7 -7 -8 -8 -8 -8 -8 -9
-4 -4 -4 -4 -3 -3 -2 -2 -1 -2 -3 -3 -3 -2 -3 -2 -3 -3 -2 -2 -3 -3 -3 -4 -5 -5 -6 -6 -6 -6 -6 -7 -7 -7 -7 -8 -8 -8
-5 -5 -4 -4 -4 -3 -3 -4 -4 -5 -4 -4 -4 -3 -3 -4 -4 -4 -4 -3 -3 -4 -5 -6 -6 -6 -6 -6 -6 -6 -6 -6 -7 -7 -7 -8 -8 -8
-6 -5 -4 -4 -4 -5 -6 -6 -6 -5 -5 -5 -5 -5 -4 -4 -4 -4 -4 -5 -5 -5 -6 -7 -6 -7 -7 -7 -7 -7 -7 -7 -8 -8 -8 -8 -8 -8
-6 -6 -5 -4 -4 -5 -5 -6 -6 -5 -5 -5 -5 -5 -5 -5 -4 -4 -5 -6 -6 -7 -7 -7 -6 -6 -6 -7 -7 -8 -8 -8 -8 -9 -9 -10 -10 -10

GFSNE_700_temp_237.txt.gz
Temp
6 6 6 6 6 6 6 6 6 6 6 6 6 5 5 5 5 5 4 4 4 4 4 4 3 4 3 3 3 3 3 3 2 2 2 1 1 1
6 5 6 6 6 6 6 6 6 6 6 6 6 6 5 5 5 5 5 4 4 4 4 3 3 3 3 3 3 3 2 3 2 2 2 2 1 0
6 5 5 6 5 6 6 5 6 5 6 6 6 6 5 5 5 5 4 4 4 4 4 4 3 2 3 3 3 3 2 2 2 2 2 1 1 0
6 5 5 5 5 5 5 5 5 5 5 6 6 6 6 5 5 4 4 4 4 4 2 2 2 3 3 3 3 3 3 3 2 2 2 1 0 -0
4 5 4 4 5 4 4 5 5 5 4 4 4 6 5 5 5 4 4 3 3 3 2 2 2 2 2 2 2 2 2 2 2 2 1 -0 -1 -1
4 4 2 4 3 4 3 3 4 4 4 4 4 3 4 3 3 4 5 3 3 2 3 2 2 2 2 2 3 2 2 2 2 2 1 -0 -0 -1
4 2 3 4 3 2 3 3 3 3 2 3 4 3 3 4 4 4 3 3 3 3 2 3 2 3 3 2 3 2 1 2 2 2 -0 -0 -1 -1
3 2 2 3 3 3 2 2 3 3 3 3 2 1 3 4 3 3 3 3 2 3 2 3 3 3 2 3 3 2 2 2 1 0 -1 -1 -1 -2
4 3 3 3 3 3 2 2 2 3 3 3 2 2 2 4 3 3 3 2 2 2 3 3 2 2 2 3 2 2 3 1 1 -0 -0 -2 -2 -2
2 2 2 3 3 3 3 3 3 3 3 2 2 3 2 3 2 2 2 2 2 2 2 2 3 2 2 2 2 1 1 1 0 -1 -1 -2 -2 -2
2 2 2 2 3 3 3 3 2 3 3 2 3 2 2 2 2 2 2 2 2 2 2 2 2 2 2 1 1 0 1 0 0 -0 -0 -1 -1 -2
0 1 1 2 2 2 3 2 2 2 3 2 3 2 2 2 2 2 2 2 2 2 1 2 2 2 2 1 1 0 0 0 -0 -0 -0 -1 -2 -2
-0 0 0 1 1 1 1 2 2 2 2 2 2 2 2 2 2 2 1 2 1 2 1 1 1 1 1 0 0 0 -0 0 -0 0 -0 -1 -1 -2
-1 -1 -1 -0 -0 0 0 0 1 1 1 1 1 2 2 2 2 1 1 1 1 1 0 1 1 1 1 0 0 0 -0 -0 -1 -1 -1 -2 -2 -2
-2 -2 -1 -1 -0 -0 0 -0 -1 -1 0 1 1 1 2 3 1 1 1 1 1 1 0 1 1 -0 -0 0 -0 0 0 -0 -1 -1 -1 -2 -3 -2
-2 -2 -2 -1 -1 -1 -0 -0 0 0 -0 -0 -0 0 1 1 2 1 1 1 -0 -1 0 -0 0 -0 -1 -1 -1 -1 -1 -1 -2 -2 -2 -3 -3 -3
-3 -2 -2 -2 -2 -2 -1 -1 -0 -0 0 1 -0 -1 -0 1 1 1 1 1 0 -0 -1 -1 -0 -1 -1 -1 -1 -2 -1 -2 -2 -3 -3 -4 -4 -4
-4 -4 -3 -3 -2 -2 -2 -1 -1 -1 -1 0 0 -0 -1 -0 0 1 -0 -0 -1 -1 -1 -2 -1 -2 -1 -2 -2 -3 -3 -3 -3 -3 -4 -5 -5 -6
-4 -4 -4 -4 -3 -3 -2 -2 -2 -2 -2 -1 -0 -0 -0 -1 -0 -0 -1 -2 -2 -2 -3 -1 -2 -2 -3 -2 -3 -4 -3 -4 -4 -4 -5 -5 -6 -7
-5 -5 -5 -5 -4 -4 -3 -3 -3 -2 -2 -1 -1 -1 -1 -1 -0 -1 -2 -1 -2 -3 -3 -3 -2 -3 -3 -4 -4 -4 -5 -5 -5 -5 -6 -6 -7 -7
-5 -5 -5 -5 -5 -5 -4 -3 -3 -3 -2 -2 -1 -1 -2 -2 -2 -3 -2 -2 -3 -3 -3 -3 -4 -4 -4 -5 -5 -6 -6 -6 -6 -6 -6 -6 -6 -6
-6 -6 -7 -6 -6 -5 -4 -4 -3 -3 -3 -3 -4 -4 -4 -4 -4 -3 -3 -3 -3 -3 -4 -4 -4 -5 -6 -6 -6 -6 -6 -6 -6 -6 -6 -6 -7 -7
-7 -7 -8 -8 -7 -6 -5 -4 -5 -5 -4 -4 -5 -5 -4 -4 -5 -5 -4 -5 -5 -4 -5 -5 -6 -6 -6 -7 -7 -6 -6 -6 -6 -7 -7 -8 -8 -8

GFSNE_700_temp_243.txt.gz
Temp
5 5 5 5 5 5 5 5 5 5 6 7 6 6 6 6 5 5 5 5 5 6 6 5 6 6 6 5 5 5 5 5 5 4 4 3 3 2
5 4 5 6 6 5 5 6 5 5 5 6 7 6 6 6 5 5 5 5 5 6 6 5 5 5 5 5 5 5 5 4 4 4 3 3 2 2
5 4 5 6 6 5 5 6 6 5 6 6 5 6 6 6 6 5 5 5 5 5 5 5 5 5 5 4 4 4 4 3 3 3 3 2 2 2
5 5 5 6 6 6 5 6 6 6 6 6 5 5 6 6 6 5 5 5 5 5 5 5 5 5 5 4 3 3 3 3 3 2 3 3 3 2
5 5 5 5 5 6 6 6 6 6 6 5 5 5 4 5 5 5 5 5 5 5 5 5 5 4 3 3 3 3 3 3 3 3 3 2 3 2
5 5 5 5 5 6 6 6 6 6 5 5 5 5 5 4 5 5 5 5 5 4 5 4 4 3 3 3 2 3 3 3 3 3 3 3 2 2
5 5 5 5 5 6 6 5 5 6 5 5 5 5 5 4 5 5 4 4 3 3 3 3 3 3 3 3 3 3 3 3 3 2 3 2 3 2
4 4 4 5 4 4 5 5 4 5 5 4 5 5 5 5 3 4 3 3 4 4 3 3 3 3 3 3 3 3 3 3 2 3 2 3 2 2
3 3 3 3 2 3 3 4 4 3 3 3 4 4 3 3 3 2 3 3 3 3 2 3 2 2 3 2 2 2 2 2 3 2 2 2 2 2
2 2 3 3 2 2 3 3 3 3 2 2 2 2 2 2 3 2 2 2 2 2 2 2 2 2 1 2 2 2 2 2 2 2 2 2 2 2
2 3 3 2 1 1 2 2 2 2 2 3 2 2 2 2 2 2 2 2 3 2 2 2 2 2 1 2 2 2 2 2 2 2 2 2 1 2
3 2 2 2 2 2 2 2 3 3 3 3 2 2 2 2 2 2 2 2 2 3 3 2 2 2 2 2 1 2 2 2 1 2 2 1 1 1
3 2 1 2 2 3 2 2 2 3 3 3 3 2 3 2 2 3 2 2 2 2 3 2 2 2 2 2 2 2 1 2 2 2 1 1 0 0
2 2 2 2 2 2 2 2 2 2 2 2 2 3 3 2 2 2 3 3 2 2 2 2 1 2 2 2 1 1 2 2 2 1 1 1 0 0
-1 -1 2 1 1 2 1 1 2 2 2 2 2 2 2 2 2 2 2 2 2 1 2 2 2 2 2 2 1 1 1 1 1 0 1 0 1 0
-2 -3 -1 1 1 0 -1 -1 1 1 1 1 1 1 1 1 2 1 2 1 1 2 2 1 1 1 2 1 1 0 1 0 0 0 -0 -0 -0 -1
-2 -2 -2 -2 -2 -1 -2 -2 -2 -1 -0 -0 0 1 1 1 1 1 1 1 1 1 1 1 1 1 1 0 1 0 1 0 -0 -0 -0 -0 -1 -1
-2 -2 -1 -2 -2 -2 -2 -2 -2 -2 -1 -1 -1 -0 -0 0 0 0 -0 0 -0 -0 0 0 1 1 -0 0 -1 -0 -1 -1 -1 -1 -1 -1 -1 -2
-3 -3 -3 -2 -2 -2 -2 -1 -1 -1 -2 -2 -2 -1 -1 -1 -0 0 0 0 -0 -0 -0 -0 0 -1 0 -0 -2 -1 -1 -1 -2 -2 -2 -2 -2 -3
-4 -4 -3 -4 -3 -3 -2 -2 -2 -2 -1 -2 -2 -2 -1 -1 -1 -1 -0 -0 -0 -0 -1 -1 -1 -2 -1 -1 -1 -2 -2 -2 -2 -3 -2 -2 -3 -3
-5 -4 -4 -4 -4 -4 -4 -3 -3 -3 -2 -2 -3 -3 -3 -2 -2 -2 -2 -1 -1 -1 -1 -1 -2 -2 -2 -1 -2 -2 -2 -2 -3 -3 -3 -3 -4 -4
-5 -5 -4 -4 -4 -4 -4 -4 -4 -4 -4 -4 -4 -3 -3 -3 -3 -2 -2 -2 -2 -2 -2 -2 -3 -3 -3 -2 -2 -2 -3 -3 -3 -4 -4 -4 -4 -5
-6 -6 -5 -5 -4 -4 -4 -4 -4 -4 -5 -5 -5 -5 -5 -4 -4 -3 -3 -3 -2 -2 -2 -2 -3 -3 -3 -3 -4 -3 -4 -4 -4 -4 -5 -5 -5 -5

GFSNE_700_temp_246.txt.gz
Temp
6 6 5 5 5 4 4 4 4 4 4 6 6 6 6 6 6 6 6 6 6 5 6 6 6 5 5 5 5 5 5 5 5 5 4 4 3 3
5 6 5 5 5 5 3 3 4 4 4 5 6 6 5 6 6 6 6 6 6 6 6 6 6 5 5 5 5 5 5 5 5 4 4 3 3 2
5 5 5 5 5 5 4 4 4 4 4 5 5 6 5 5 5 6 6 6 6 6 6 5 5 5 5 5 5 5 5 4 4 4 3 3 3 3
5 5 5 5 5 5 5 5 5 5 5 5 4 4 6 6 6 5 6 6 6 5 5 5 5 5 5 5 5 5 4 4 4 3 3 3 3 2
6 5 5 5 5 5 5 6 6 5 5 5 5 4 4 5 5 5 5 6 5 5 5 5 5 5 5 5 5 4 4 4 3 3 3 3 3 3
6 5 5 4 4 5 5 5 6 6 6 5 5 5 4 4 4 4 5 5 6 5 5 5 5 5 5 5 4 4 4 3 3 3 3 3 2 2
6 6 5 5 5 5 5 5 5 5 6 6 5 5 5 5 4 5 4 5 6 5 5 5 5 4 4 4 4 3 3 3 3 3 3 3 3 2
5 6 5 5 4 5 5 5 4 5 5 5 5 5 5 5 5 4 4 3 4 5 5 4 3 3 3 2 2 3 3 3 3 3 2 2 2 2
5 4 4 4 4 4 4 4 4 4 4 4 4 4 4 5 4 4 4 3 4 3 3 3 3 3 3 2 2 2 2 2 2 3 2 2 2 2
4 4 4 3 3 2 4 3 4 4 3 3 3 4 3 3 3 3 3 3 3 3 2 2 2 2 2 2 2 2 2 2 2 2 2 2 2 2
4 3 3 3 2 3 3 3 2 3 2 2 2 2 2 2 2 2 3 3 3 2 2 2 2 3 2 2 2 3 2 2 1 1 2 2 2 2
3 2 3 3 4 3 3 3 3 2 1 1 2 1 2 2 2 3 3 3 2 2 2 2 2 2 2 2 3 2 2 2 2 2 2 2 2 1
2 2 3 2 3 4 3 3 2 2 2 1 3 2 2 2 3 2 3 2 2 2 2 2 2 2 2 2 2 2 2 2 1 2 2 2 1 1
0 1 2 2 2 2 2 2 2 2 2 2 2 2 2 2 2 2 2 2 2 2 2 2 2 2 2 2 2 2 2 1 1 1 2 1 1 1
-1 0 0 1 2 1 2 2 2 2 2 2 2 2 2 2 2 2 2 2 2 2 2 2 2 1 2 2 1 2 1 1 2 1 1 1 1 -0
-3 -1 -2 -1 1 1 1 1 2 2 2 1 2 2 2 2 2 2 2 1 2 1 2 1 1 2 2 1 2 1 1 1 1 0 1 1 0 0
-2 -3 -3 -2 -2 -2 -2 -0 1 1 2 2 2 1 1 2 2 1 1 1 2 2 1 2 1 1 1 2 1 1 1 1 0 1 1 0 -0 -0
-3 -2 -2 -3 -3 -2 -1 -1 -1 -0 0 1 -3 -2 -2 -1 -0 -0 1 1 1 1 1 1 0 1 1 1 1 1 1 1 0 0 0 -1 -1 -1
-3 -3 -3 -3 -2 -3 -3 -4 -3 -1 -2 -1 -1 -2 -1 -1 -2 -1 0 0 0 0 0 -0 -0 -0 -1 -0 0 0 -0 -1 -1 -1 -1 -1 -2 -1
-4 -4 -3 -3 -3 -2 -2 -2 -3 -3 -3 -3 -3 -3 -2 -2 -2 -1 -1 -1 -1 -1 -1 -0 -1 -1 -1 -1 -1 -1 -1 -1 -2 -2 -2 -2 -2 -2
-5 -4 -4 -4 -4 -3 -3 -3 -2 -2 -2 -2 -2 -3 -3 -3 -2 -2 -2 -2 -2 -1 -1 -1 -1 -1 -2 -2 -2 -2 -2 -2 -2 -2 -3 -3 -3 -3
-6 -6 -5 -4 -4 -4 -4 -4 -3 -3 -2 -2 -3 -2 -3 -3 -3 -3 -3 -3 -2 -2 -2 -2 -2 -2 -2 -2 -2 -2 -2 -3 -2 -3 -2 -3 -3 -3
-7 -6 -6 -5 -5 -4 -4 -3 -3 -4 -3 -3 -3 -3 -3 -4 -4 -4 -4 -4 -3 -3 -3 -3 -3 -2 -2 -2 -3 -3 -3 -3 -3 -4 -3 -4 -4 -4

GFSNE_700_temp_249.txt.gz
Temp
6 6 6 6 6 6 6 6 6 6 6 6 6 7 6 6 6 6 6 6 6 5 5 5 5 5 5 5 5 5 5 5 5 5 5 4 4 4
6 6 6 6 6 5 6 6 6 5 5 5 6 6 6 6 6 6 6 6 6 6 5 5 5 5 5 5 5 5 5 5 5 5 4 4 4 4
6 6 6 5 5 5 5 5 5 4 4 5 5 5 5 5 6 6 6 6 6 6 6 6 6 5 5 5 5 5 5 5 5 5 4 4 3 3
6 5 5 5 5 5 5 5 4 4 4 4 3 3 4 5 6 5 6 6 6 6 5 5 5 5 5 5 5 5 5 5 5 4 4 4 4 3
6 5 5 5 5 5 5 5 5 4 4 4 3 4 4 5 5 5 6 6 6 6 5 5 5 5 5 5 5 5 5 4 4 4 4 4 4 3
5 5 5 5 5 6 5 5 5 5 5 4 4 4 4 4 4 4 5 6 6 6 5 5 5 5 4 5 5 5 5 5 4 4 3 3 3 3
4 5 6 6 6 6 5 5 5 5 5 5 5 5 5 5 5 5 5 5 5 6 5 5 4 4 4 4 5 5 5 5 4 3 3 3 3 3
4 6 6 6 6 6 5 5 5 5 5 5 5 5 5 5 5 4 5 5 5 6 5 6 5 5 4 4 4 4 3 3 3 2 2 2 3 3
4 4 4 4 4 5 5 5 4 4 5 4 4 4 5 5 5 4 4 5 5 5 4 5 5 5 4 4 4 3 3 2 3 3 2 3 2 2
3 3 3 4 4 5 5 4 4 4 4 4 4 5 5 5 5 4 3 3 3 3 4 3 3 4 3 3 2 2 2 2 2 2 2 2 2 2
3 2 3 3 4 5 4 3 3 4 3 4 4 4 4 4 4 3 4 3 3 2 3 3 2 3 3 2 2 2 2 2 2 2 2 2 2 2
2 2 3 4 3 2 3 3 2 4 3 2 3 2 3 2 3 3 2 2 3 3 3 2 3 2 2 3 2 2 2 2 2 2 2 2 2 2
1 2 2 2 1 2 2 2 3 3 3 2 2 2 2 2 1 2 1 2 2 2 2 2 2 3 2 2 2 2 2 2 2 2 2 2 1 2
-0 0 1 2 2 2 2 3 3 2 2 2 3 2 2 2 1 1 1 2 2 2 2 2 2 2 2 2 2 2 2 2 2 2 1 2 2 2
-2 -1 -1 -1 1 1 2 2 2 2 2 2 2 2 2 1 1 2 2 2 2 2 2 2 2 2 2 2 2 2 2 2 2 1 1 1 1 1
-3 -2 -1 -1 -0 -0 2 2 1 2 2 2 2 2 2 1 1 2 1 2 2 2 2 2 2 2 2 2 2 2 1 1 1 2 1 1 1 1
-3 -3 -3 -2 -1 -0 -0 0 1 0 2 2 2 1 1 2 1 1 1 1 2 2 2 2 2 1 1 1 1 1 1 1 1 1 1 0 1 0
-4 -3 -3 -3 -3 -3 -2 -1 -1 -1 -0 1 1 1 1 2 2 1 1 2 2 1 2 2 1 2 2 2 1 1 1 1 1 0 0 0 0 -0
-4 -4 -4 -4 -3 -3 -2 -3 -3 -2 -1 -0 -0 0 -0 1 1 1 1 0 0 0 -1 -1 -0 0 1 1 1 0 0 0 -0 -0 0 -1 -1 -1
-5 -5 -5 -4 -4 -4 -4 -4 -3 -2 -3 -2 -2 -2 -2 -2 -0 0 -1 -1 -3 -3 -2 -1 -2 -1 -1 -0 -0 -1 -1 -1 -1 -1 -1 -1 -1 -1
-6 -6 -5 -5 -5 -5 -5 -4 -4 -4 -3 -3 -4 -4 -4 -2 -2 -2 -2 -2 -2 -4 -4 -3 -3 -2 -2 -1 -1 -1 -1 -2 -2 -2 -2 -2 -2 -2
-7 -7 -7 -6 -6 -5 -5 -5 -5 -5 -4 -4 -4 -3 -3 -3 -3 -4 -5 -5 -5 -4 -3 -3 -3 -3 -2 -2 -2 -2 -2 -2 -2 -2 -3 -3 -3 -3
-8 -7 -7 -7 -6 -6 -5 -5 -5 -5 -5 -4 -4 -4 -4 -4 -4 -4 -4 -4 -4 -4 -3 -3 -3 -3 -2 -2 -2 -2 -3 -2 -4 -3 -4 -4 -3 -3

GFSNE_700_temp_252.txt.gz
Temp
7 7 7 7 7 7 7 7 7 7 7 7 7 7 7 7 7 6 6 6 6 6 6 6 5 5 5 5 5 5 5 5 5 5 5 5 4 4
6 7 7 7 7 7 7 7 7 7 7 7 6 6 6 6 6 6 6 6 6 6 6 6 5 5 5 5 5 5 5 5 5 5 4 4 4 4
6 7 7 6 7 6 6 6 6 6 6 6 6 6 5 5 5 5 6 6 6 6 6 6 6 6 5 5 5 5 5 5 5 5 4 4 4 4
5 6 6 6 6 6 6 6 6 6 6 6 6 6 5 5 5 5 4 5 6 6 6 6 6 6 6 6 5 5 5 5 5 4 4 4 4 4
4 5 5 6 6 6 6 5 5 5 5 5 5 5 4 4 3 3 4 4 5 6 6 5 6 6 5 6 5 5 5 5 4 4 4 4 4 4
4 4 4 5 5 5 5 5 5 5 5 5 4 5 4 4 3 3 3 4 5 5 5 5 5 5 5 5 5 5 5 5 5 5 4 4 4 3
5 3 4 4 5 5 5 5 5 5 4 5 5 4 4 4 4 4 4 4 5 5 5 5 5 5 5 5 5 5 5 5 4 4 4 4 3 2
1 3 3 3 4 4 4 5 5 5 5 5 5 5 5 5 4 4 4 4 4 5 5 5 5 5 5 5 4 4 4 4 4 4 4 4 3 2
0 1 1 3 3 4 4 4 5 5 5 5 5 5 5 5 5 4 4 4 4 5 5 5 5 5 5 5 5 4 4 4 4 4 3 3 3 2
2 3 1 2 3 4 4 4 4 5 5 5 5 5 5 5 4 4 4 4 4 4 5 5 5 5 6 5 4 3 3 3 3 3 3 3 2 3
2 1 0 2 1 3 3 4 3 4 4 4 4 4 4 4 5 4 4 4 3 4 4 4 4 4 4 4 4 3 3 3 3 2 2 2 2 2
1 2 2 2 2 2 2 2 4 4 3 4 4 4 4 4 4 4 3 3 3 3 3 3 4 3 3 4 3 4 3 2 2 2 2 2 2 2
0 1 1 2 2 2 2 3 3 4 4 3 3 3 3 3 3 4 4 3 3 3 3 3 3 2 3 3 3 3 2 2 2 2 2 2 2 2
-2 -0 0 1 2 2 2 2 2 3 2 2 3 3 3 3 2 2 1 2 2 2 2 2 2 2 2 2 3 2 2 2 2 2 2 2 2 2
-3 -2 -1 -0 1 1 2 1 2 2 1 3 3 3 2 2 3 2 2 2 2 2 2 2 1 2 2 2 2 2 2 2 2 2 2 2 1 2
-3 -3 -3 -2 -1 -1 0 1 1 2 1 2 2 2 2 1 2 2 2 2 2 1 1 1 1 1 1 2 2 2 2 2 2 2 1 2 1 1
-4 -3 -3 -3 -3 -2 -1 -1 -1 0 2 2 2 2 2 1 2 2 2 2 2 1 1 1 1 2 2 2 1 1 2 2 1 1 2 1 1 1
-4 -4 -4 -3 -3 -2 -3 -3 -2 -1 0 1 1 0 1 1 1 2 2 2 1 2 1 1 2 2 2 2 1 2 2 1 1 1 1 1 1 1
-4 -4 -4 -4 -4 -3 -3 -2 -2 -2 -1 -1 0 0 0 0 0 1 1 1 1 1 1 1 1 1 1 1 1 1 1 1 1 1 1 1 0 0
-5 -5 -5 -5 -5 -5 -4 -3 -3 -2 -2 -2 -2 -1 -1 -0 -0 0 1 0 0 1 1 1 1 1 0 -0 -0 -1 -1 -0 -1 -1 -1 -1 -0 -0
-6 -6 -6 -5 -6 -6 -5 -5 -4 -4 -3 -2 -2 -2 -3 -3 -2 -1 -1 -1 -0 0 -0 0 0 -1 -3 -3 -3 -2 -2 -2 -2 -3 -2 -2 -2 -2
-7 -7 -7 -7 -6 -6 -6 -6 -5 -5 -4 -4 -4 -3 -3 -3 -3 -3 -2 -3 -3 -2 -2 -2 -2 -2 -5 -5 -4 -4 -3 -3 -3 -4 -3 -3 -3 -3
-8 -8 -7 -7 -7 -7 -6 -6 -6 -5 -5 -5 -5 -5 -4 -4 -4 -4 -4 -4 -5 -5 -5 -4 -4 -3 -3 -5 -6 -6 -7 -5 -4 -3 -3 -3 -3 -4

GFSNE_700_temp_255.txt.gz
Temp
6 6 6 7 7 7 7 7 7 7 8 8 7 7 7 7 6 6 6 6 6 6 6 6 6 6 6 6 6 6 6 5 5 5 5 5 5 4
5 6 6 6 7 7 7 7 7 7 6 7 7 7 7 6 6 6 5 5 5 6 6 6 6 6 6 6 5 5 5 5 5 5 5 4 4 4
5 5 5 6 6 7 6 6 7 7 7 7 7 7 6 6 6 6 5 5 5 5 5 6 6 6 6 6 5 5 5 5 5 5 5 4 4 4
4 4 5 5 6 7 6 6 6 6 6 7 7 6 6 7 6 6 6 5 5 5 5 5 5 6 6 6 6 6 6 5 5 5 5 4 4 4
4 4 4 5 5 6 6 6 6 6 6 6 6 6 6 6 6 6 5 6 5 4 4 4 5 5 5 5 5 6 5 5 5 5 5 4 4 4
4 2 4 4 5 5 5 6 6 6 6 6 6 6 6 6 5 5 5 5 5 4 4 4 4 5 5 5 5 5 5 5 5 5 5 4 4 4
3 2 3 4 4 4 4 5 5 5 5 5 5 6 6 6 6 6 5 5 4 3 3 3 3 4 5 5 5 5 5 5 5 5 4 4 4 4
-0 0 2 3 4 4 5 5 4 4 4 5 5 5 6 6 5 5 5 4 4 3 2 4 4 4 4 4 5 5 5 5 4 4 4 4 4 4
-0 -0 0 2 2 3 4 3 4 4 3 4 4 5 5 6 5 5 5 5 4 4 3 3 4 4 4 4 5 5 4 4 4 4 4 4 4 4
-0 -0 1 1 2 3 3 3 3 3 4 4 4 4 5 5 5 5 5 4 4 4 3 3 3 4 4 4 5 4 4 4 4 4 4 4 4 4
1 1 1 0 1 1 2 3 4 3 3 3 4 4 5 5 5 5 5 4 4 4 4 4 4 4 4 5 4 4 4 4 4 3 3 3 3 3
1 0 1 1 1 1 1 2 2 3 3 4 3 3 3 5 6 6 5 5 5 4 4 4 4 4 4 5 4 4 4 4 3 3 3 3 3 2
-1 -0 1 1 1 1 1 1 1 1 2 3 3 3 4 3 5 5 5 5 4 4 4 4 4 4 4 4 5 4 3 3 3 3 2 2 3 2
-3 -2 -1 0 0 1 1 1 1 1 1 2 3 3 3 3 3 4 4 3 3 3 3 3 3 3 3 4 4 4 3 3 3 3 3 2 2 2
-4 -3 -2 -2 -1 -0 1 1 1 1 2 2 2 3 3 3 3 3 3 2 3 3 2 3 2 2 2 3 2 2 3 2 3 3 2 3 1 2
-4 -4 -3 -3 -2 -2 -1 -0 0 1 1 1 2 2 3 3 3 3 3 2 2 3 2 2 2 2 2 2 2 2 2 2 2 2 2 2 1 2
-5 -4 -4 -4 -3 -3 -2 -1 -1 -0 0 1 1 2 2 2 1 2 2 2 2 2 2 2 2 2 2 1 2 2 1 1 2 2 1 1 2 2
-5 -5 -4 -4 -4 -3 -3 -2 -2 -2 -1 -1 0 1 1 1 1 2 2 2 2 2 2 2 2 2 2 2 1 1 1 1 1 1 2 1 2 1
-5 -5 -5 -5 -4 -4 -4 -3 -3 -2 -2 -2 -2 -1 -1 -0 1 1 1 0 1 1 2 2 2 2 2 2 2 1 1 1 1 1 1 1 1 1
-6 -6 -6 -6 -5 -5 -4 -4 -3 -4 -3 -3 -4 -3 -2 -1 -1 -0 -0 -0 -0 1 1 1 1 1 2 1 1 1 1 1 1 0 -0 0 0 0
-8 -7 -7 -7 -6 -6 -5 -5 -4 -4 -4 -4 -4 -4 -4 -3 -2 -2 -1 -1 -0 -0 -0 0 1 1 1 1 1 1 1 1 1 -0 -1 -0 0 -0
-9 -8 -8 -7 -7 -7 -7 -6 -6 -6 -5 -5 -4 -4 -4 -3 -3 -4 -3 -2 -1 -2 -1 -1 -1 -1 0 -0 0 0 0 0 -0 -1 -1 -2 -2 -3
-10 -9 -9 -8 -8 -7 -7 -7 -7 -6 -6 -6 -5 -5 -5 -4 -4 -3 -3 -3 -4 -5 -4 -3 -2 -2 -1 -1 -2 -2 -2 -2 -2 -3 -3 -6 -6 -5